Hatteras, NC

10:47 AM EST on December 06, 2019 (GMT -0500)
Mitchell

Weather History for KHSE - August, 2019

Change the Weather History Date:

Sunday, August 11, 2019

  Actual Average Record
Temperature  
Mean Temperature 83 °F 79 °F  
Max Temperature 90 °F 85 °F 93 °F (1958)
Min Temperature 75 °F 73 °F 65 °F (1944)
Degree Days  
Heating Degree Days 0 0  
Month to date heating degree days 0 0  
Since 1 June heating degree days 0 3  
Since 1 July heating degree days 0 0  
Cooling Degree Days 18 14  
Month to date cooling degree days 181 154  
Year to date cooling degree days 1481 1042  
Since 1 June cooling degree days 1099 899  
Growing Degree Days 33 (Base 50)    
Moisture  
Dew Point 68 °F    
Average Humidity 64    
Maximum Humidity 79    
Minimum Humidity 46    
Precipitation  
Precipitation 0.05 in 0.21 in 3.90 in (1955)
Month to date precipitation 2.59 2.27  
Year to date precipitation 34.31 32.53  
Snow  
Snow 0.00 in - - ()
Month to date snowfall 0.0  
Since 1 July snowfall 0.0  
Snow Depth 0.00 in    
Sea Level Pressure  
Sea Level Pressure 29.99 in    
Wind  
Wind Speed 6 mph ()    
Max Wind Speed 15 mph    
Max Gust Speed 18 mph    
Visibility 10.0 miles    
Events Rain    
T = Trace of Precipitation, MM = Missing Value Source: Averaged Metar Reports

Daily Weather History Graph

Daily Weather History Graph

Search for Another Location

Airport or City:

Astronomy

Aug. 11, 2019 Rise Set
Actual Time 6:18 AM EDT 7:55 PM EDT
Civil Twilight 5:51 AM EDT 8:23 PM EDT
Nautical Twilight 5:18 AM EDT 8:55 PM EDT
Astronomical Twilight 4:44 AM EDT 9:30 PM EDT
Moon 5:27 PM EDT (8/11) 2:42 AM EDT (8/11)
Length of Visible Light 14h 31m
Length of Day
13h 37m
Waxing Gibbous, 87% of the Moon is Illuminated
Aug 11
Waxing Gibbous
Aug 15
Full
Aug 23
Last Quarter
Aug 30
New
Sep 5
First Quarter

Hourly Weather History & Observations

Time (EDT) Temp. Heat Index Dew Point Humidity Pressure Visibility Wind Dir Wind Speed Gust Speed Precip Events Conditions
12:51 AM 77.0 °F - 69.1 °F 76% 29.95 in 10.0 mi ENE 5.8 mph - N/A   Clear
1:51 AM 77.0 °F - 69.1 °F 76% 29.93 in 10.0 mi ENE 5.8 mph - N/A   Clear
2:51 AM 79.0 °F - 70.0 °F 74% 29.92 in 10.0 mi ENE 6.9 mph - N/A   Overcast
3:51 AM 79.0 °F - 69.1 °F 72% 29.93 in 10.0 mi ENE 6.9 mph - N/A   Overcast
4:51 AM 78.1 °F - 68.0 °F 71% 29.95 in 10.0 mi ENE 6.9 mph - N/A   Mostly Cloudy
5:51 AM 78.1 °F - 68.0 °F 71% 29.96 in 10.0 mi ENE 5.8 mph - 0.02 in Rain Light Rain
6:51 AM 78.1 °F - 66.9 °F 68% 29.97 in 10.0 mi ENE 6.9 mph - 0.03 in   Scattered Clouds
7:51 AM 80.1 °F 82.3 °F 66.9 °F 64% 29.99 in 10.0 mi East 5.8 mph - N/A   Mostly Cloudy
8:51 AM 82.0 °F 87.9 °F 73.9 °F 76% 29.99 in 10.0 mi ESE 10.4 mph - N/A   Partly Cloudy
9:51 AM 84.9 °F 87.1 °F 66.0 °F 53% 29.99 in 10.0 mi ENE 11.5 mph - N/A   Clear
10:51 AM 88.0 °F 89.6 °F 64.9 °F 46% 30.01 in 10.0 mi ENE 8.1 mph - N/A   Clear
11:51 AM 88.0 °F 89.6 °F 64.9 °F 46% 30.01 in 10.0 mi East 10.4 mph - N/A   Clear
12:51 PM 90.0 °F 92.8 °F 66.9 °F 46% 30.01 in 10.0 mi ESE 12.7 mph - N/A   Clear
1:51 PM 87.1 °F 89.9 °F 66.9 °F 51% 30.02 in 10.0 mi East 8.1 mph - N/A   Overcast
2:51 PM 89.1 °F 93.7 °F 69.1 °F 52% 30.00 in 10.0 mi East 6.9 mph - N/A   Mostly Cloudy
3:51 PM 88.0 °F 92.9 °F 70.0 °F 55% 29.99 in 10.0 mi NE 9.2 mph - N/A   Mostly Cloudy
4:51 PM 86.0 °F 90.7 °F 70.0 °F 59% 29.99 in 10.0 mi ENE 8.1 mph - N/A   Clear
5:51 PM 84.0 °F 88.4 °F 70.0 °F 63% 30.00 in 10.0 mi NE 8.1 mph - N/A   Partly Cloudy
6:51 PM 82.0 °F 86.3 °F 71.1 °F 69% 30.00 in 10.0 mi Variable 5.8 mph - N/A   Mostly Cloudy
7:51 PM 81.0 °F 84.1 °F 69.1 °F 67% 30.00 in 10.0 mi ENE 4.6 mph - N/A   Clear
8:51 PM 79.0 °F - 69.1 °F 72% 30.01 in 10.0 mi ENE 4.6 mph - N/A   Mostly Cloudy
9:51 PM 79.0 °F - 68.0 °F 69% 30.01 in 10.0 mi ENE 4.6 mph - N/A   Mostly Cloudy
10:51 PM 77.0 °F - 68.0 °F 74% 30.02 in 10.0 mi East 4.6 mph - N/A   Clear
11:51 PM 75.9 °F - 68.0 °F 76% 30.02 in 10.0 mi ENE 5.8 mph - N/A   Clear